#timestamp,LO_Frequency,Hit,StdDev 
1711040415.9,286045950.3,N
1711040435.7,286045950.1,N
1711040455.6,286045955.5,N
1711040475.4,286045953.7,N
1711040495.2,286045950.2,N
1711040515.1,286045952.2,Y
1711040516.0,286045952.2,P
1711040535.8,286046998.2,P
1711040555.7,286046998.3,N
1711040575.5,286047001.5,N
1711040595.3,286047001.3,N
1711040615.2,286046999.8,N
1711040635.0,286047002.8,N
1711040635.9,286047002.8,N
1711040655.8,286047003.4,N
1711040675.6,286047004.0,N
1711040695.4,286047003.5,N
1711040715.3,286047004.7,N
1711040735.1,286047004.5,N
1711040755.8,286047007.0,N
1711040775.7,286047006.2,N
1711040795.5,286047007.8,N
1711040815.4,286047009.6,N
1711040835.2,286047012.2,N
1711040855.0,286047011.4,N
1711040855.9,286047011.4,N
1711040875.8,286047011.3,N
1711040895.6,286047013.6,N
1711040915.4,286047012.7,N
1711040935.3,286047012.7,N
1711040955.1,286047010.9,N
1711040975.9,286047014.9,N
1711040995.7,286047016.2,N
1711041015.5,286047017.3,N
1711041035.4,286047020.5,N
1711041055.2,286047021.8,N
1711041075.0,286047019.4,N
1711041075.9,286047019.4,N
1711041095.8,286047018.1,N
1711041115.6,286047017.4,N
1711041135.5,286047017.9,N
1711041155.3,286047019.0,Y
1711041175.1,286047009.3,P
1711041195.9,286047013.1,P
1711041215.7,286047013.6,P
1711041235.6,286047012.6,Y
1711041255.4,286047004.1,P
1711041275.2,286047005.8,N
1711041295.1,286047003.4,N
1711041296.0,286047003.4,N
1711041315.8,286047003.9,N
1711041335.7,286047000.1,N
1711041355.5,286047000.7,N
1711041375.3,286046998.5,N
1711041395.2,286047001.0,N
1711041415.0,286047000.8,N
1711041415.9,286047000.8,N
1711041435.7,286047000.5,N
1711041455.6,286047003.0,N
1711041505.4,286047008.6,E
1711041515.4,286047002.9,N
1711041535.2,286046999.8,P
1711041555.0,286047000.8,N
1711041555.9,286047000.8,N
1711041575.8,286047002.5,N
1711041595.6,286047001.0,N
1711041615.5,286046999.7,N
1711041635.3,286047004.0,Y
1711041655.1,286046999.9,P
1711041675.9,286046998.1,P
1711041695.7,286047002.4,N
1711041715.6,286047001.8,N
1711041735.4,286046999.8,N
1711041755.2,286046999.7,N
1711041775.1,286047003.2,N
1711041776.0,286047003.2,N
1711041795.8,286047003.5,N
1711041815.6,286047004.6,N
1711041835.5,286047006.4,Y
1711041855.3,286047007.0,P
1711041875.2,286047004.7,N
1711041895.0,286047006.4,N
1711041895.9,286047006.4,Y
1711041915.7,286046999.7,P
1711041935.6,286047001.6,N
1711041955.4,286047003.1,N
1711041975.3,286047005.2,N
1711041995.1,286047003.9,N
1711042015.8,286047005.4,N
1711042035.7,286047005.5,N
1711042055.5,286047006.0,Y
1711042075.4,286047001.8,P
1711042095.2,286047005.9,P
1711042115.0,286047007.3,P
1711042115.9,286047007.3,Y
1711042135.8,286047000.6,P
1711042155.6,286047000.1,N
1711042175.4,286047001.8,N
1711042195.3,286047001.0,N
1711042215.1,286046998.2,N
1711042235.9,286047001.8,N
1711042255.7,286047000.4,N
1711042275.5,286047002.6,N
1711042295.4,286047002.8,N
1711042315.2,286046998.8,N
1711042335.0,286047000.3,N
1711042336.0,286047000.3,N
1711042355.8,286047005.5,Y
1711042375.6,286047003.9,P
1711042395.5,286047002.3,N
1711042415.3,286046999.8,N
1711042435.1,286047002.6,N
1711042455.9,286047002.7,N
1711042475.7,286047002.7,N
1711042495.6,286047003.5,N
1711042515.4,286047008.3,Y
1711042535.2,286047004.9,P
1711042555.1,286047006.8,P
1711042556.0,286047006.8,P
1711042575.8,286047004.7,N
1711042595.6,286047009.0,Y
1711042615.5,286047004.5,P
1711042635.3,286047003.0,P
1711042655.2,286047001.9,N
1711042675.9,286047001.3,N
1711042695.7,286047002.0,N
1711042715.6,286047004.7,Y
1711042735.4,286047006.9,P
1711042755.2,286047005.4,N
1711042775.1,286047007.2,P
1711042776.0,286047007.2,Y
1711042795.8,286046998.8,P
1711042815.7,286046999.6,N
1711042835.5,286046996.7,N
1711042855.3,286046995.0,N
1711042875.2,286046997.0,N
1711042895.0,286046998.3,N
1711042895.9,286046998.3,N
1711042915.8,286047000.5,N
1711042935.6,286047002.6,N
1711042955.4,286047003.7,N
1711042975.3,286047005.3,N
1711042995.1,286047009.8,N
1711043015.9,286047010.0,N
1711043035.7,286047008.4,N
1711043055.5,286047006.8,N
1711043075.4,286047011.9,N
1711043095.2,286047001.5,N
1711043115.0,286047002.6,N
1711043115.9,286047002.6,N
1711043135.8,286047001.6,N
1711043155.6,286047007.5,N
1711043175.5,286047005.0,N
1711043195.3,286047005.8,N
1711043215.1,286047005.4,N
1711043235.9,286047006.0,N
1711043255.7,286047006.0,N
1711043275.5,286047003.0,N
1711043295.4,286047004.6,N
1711043315.2,286047008.6,N
1711043335.1,286047010.6,N
1711043336.0,286047010.6,N
1711043355.8,286047010.4,N
1711043375.6,286047010.0,N
1711043395.5,286047009.8,N
1711043415.3,286047007.7,N
1711043435.1,286047007.2,N
1711043455.9,286047007.6,N
1711043475.7,286047006.8,N
1711043495.6,286047010.5,Y
1711043515.4,286047002.6,P
1711043535.2,286047001.1,N
1711043555.1,286047000.6,N
1711043556.0,286047000.6,N
1711043575.8,286047003.3,N
1711043595.7,286047003.5,N
1711043615.5,286046998.7,N
1711043635.3,286047001.8,N
1711043655.2,286047007.2,Y
1711043675.0,286047011.2,P
1711043675.9,286047011.2,N
1711043695.7,286047015.1,P
1711043715.6,286047014.4,Y
1711043735.4,286047006.1,P
1711043755.3,286047010.1,P
1711043775.1,286047009.5,P
1711043776.0,286047009.5,Y
1711043795.8,286047001.8,P
1711043815.7,286047000.8,N
1711043835.5,286046994.9,N
1711043855.4,286046998.9,N
1711043875.2,286046998.2,N
1711043895.0,286047001.2,N
1711043895.9,286047001.2,N
1711043915.8,286047000.5,N
1711043935.6,286046996.8,N
1711043955.4,286046999.7,N
1711043975.3,286047012.3,Y
1711043995.1,286047015.4,P
